Home > Weather > Völklingen > Past weeks

Flag for Germany Past Weather in Völklingen, Saarland, Germany — Yesterday and Last 2 Weeks

Now
55 °F

Drizzle. Partly sunny.


Feels Like: 52 °F
Forecast: 51 / 60 °F
Wind: 13 mph from Southwest

Location: Saarbruecken / Ensheim

Current Time: May 30, 2016 at 10:19:29 PM

Latest Report: May 30, 2016 at 9:50 PM


Visibility: 5 mi

Pressure: 29.71 "Hg

Humidity: 94%

Dew Point: 54 °F

Location of VölklingenLocation

Past Weather in Völklingen — Graph

°F

Völklingen Temperature Yesterday

Maximum temperature yesterday: 70 °F (at 2:20 PM)
Minimum temperature yesterday: 55 °F (at 5:50 AM)
Average temperature yesterday: 63 °F

High & Low Weather Summary for the Past Weeks

 TemperatureHumidityPressure
High75 °F (May 28, 2:20 PM)100% (May 17, 6:50 AM)30.15 "Hg (May 17, 6:50 AM)
Low37 °F (May 17, 2:50 AM)36% (May 22, 1:20 PM)29.62 "Hg (May 30, 7:50 AM)
Average56 °F76%29.94 "Hg
* Reported May 15 9:20 PM — May 30 9:20 PM, Völklingen, Weather by CustomWeather, © 2016

Note: Actual official high and low records may vary slightly from our data, if they occured in-between our weather recording intervals... More about our weather records

Advertising

Völklingen Weather History for the Previous 24 Hours

Scroll right to see more
 ConditionsComfort  
Time TempWeatherWind HumidityBarometerVisibility
9:20 PM
Mon, May 30
55 °FDrizzle. Partly sunny.13 mph94%29.68 "Hg6 mi
8:50 PM57 °FPartly sunny.14 mph88%29.68 "HgN/A
8:20 PM57 °FPartly sunny.15 mph88%29.68 "HgN/A
7:50 PM57 °FPartly sunny.14 mph88%29.68 "HgN/A
7:20 PM57 °FPartly sunny.14 mph94%29.68 "Hg6 mi
6:50 PM57 °FPartly sunny.16 mph94%29.65 "HgN/A
6:20 PM57 °FLight rain. Partly sunny.17 mph94%29.65 "HgN/A
5:50 PM57 °FLight rain. Partly sunny.17 mph94%29.65 "Hg5 mi
5:20 PM57 °FLight rain. Partly sunny.17 mph94%29.65 "HgN/A
4:50 PM59 °FLight rain. Partly sunny.15 mph94%29.65 "Hg3 mi
4:20 PM59 °FLight rain. Partly sunny.17 mph94%29.65 "Hg2 mi
3:50 PM59 °FSprinkles. Partly sunny.16 mph94%29.65 "Hg3 mi
3:20 PM59 °FPartly sunny.17 mph94%29.62 "HgN/A
2:50 PM59 °FSprinkles. Partly sunny.16 mph94%29.62 "HgN/A
2:20 PM59 °FSprinkles. Partly sunny.15 mph94%29.62 "Hg4 mi
1:50 PM59 °FSprinkles. Broken clouds.16 mph94%29.62 "HgN/A
1:20 PM61 °FPartly sunny.16 mph88%29.62 "HgN/A
12:50 PM61 °FPartly sunny.12 mph94%29.62 "HgN/A
12:20 PM61 °FLight rain. Partly sunny.12 mph94%29.62 "HgN/A
11:50 AM61 °FLight rain. Partly sunny.13 mph88%29.62 "HgN/A
11:20 AM59 °FLight rain. Partly sunny.12 mph94%29.62 "HgN/A
10:50 AM59 °FLight rain. Partly sunny.13 mph94%29.62 "Hg5 mi
10:20 AM59 °FLight rain. Partly sunny.14 mph94%29.62 "Hg4 mi
9:50 AM59 °FLight rain. Partly sunny.12 mph94%29.62 "Hg4 mi
9:20 AM57 °FLight rain. Partly sunny.12 mph100%29.62 "Hg4 mi
8:50 AM57 °FLight rain. Fog.12 mph100%29.62 "Hg3 mi
8:20 AM57 °FLight rain. Fog.13 mph94%29.62 "Hg3 mi
7:50 AM57 °FLight rain. Fog.13 mph94%29.62 "Hg2 mi
7:20 AM57 °FLight rain. Fog.13 mph94%29.65 "Hg2 mi
6:50 AM57 °FLight rain. Fog.10 mph94%29.65 "Hg2 mi
6:20 AM57 °FRain. Fog.12 mph94%29.65 "Hg2 mi
5:50 AM57 °FRain. Fog.14 mph94%29.65 "Hg2 mi
5:20 AM57 °FRain. Fog.13 mph94%29.65 "Hg2 mi
4:50 AM57 °FRain. Fog.12 mph100%29.65 "Hg2 mi
4:20 AM59 °FRain. Fog.12 mph94%29.65 "Hg2 mi
3:50 AM59 °FRain. Fog.8 mph94%29.65 "Hg2 mi
3:20 AM59 °FLow clouds.9 mph94%29.68 "Hg4 mi
2:50 AM59 °FPassing clouds.7 mph94%29.68 "HgN/A
2:20 AM59 °FPassing clouds.7 mph88%29.68 "HgN/A
1:50 AM59 °FPassing clouds.6 mph94%29.68 "HgN/A
1:20 AM61 °FPassing clouds.6 mph88%29.68 "HgN/A
12:50 AM61 °FPartly cloudy.5 mph88%29.71 "HgN/A
12:20 AM61 °FPassing clouds.5 mph88%29.71 "HgN/A
11:50 PM
Sun, May 29
61 °FClear.3 mph83%29.71 "Hg10 mi
11:20 PM61 °FPassing clouds.2 mph83%29.71 "HgN/A
10:50 PM63 °FLight rain. Partly cloudy.6 mph83%29.71 "HgN/A
10:20 PM63 °FLight rain. Broken clouds.5 mph83%29.71 "HgN/A
Weather by CustomWeather, © 2016

See weather overviewHow to use our weather pages